Wind_Speed
11 10 9 8 7 7 6 6 4 3 1 2 6 9 13 16 18 18 18 16 15 13 10 8 6 5 3 1 2 2 3 4 4 4 5 5 5 6 7 9 10 9 7 4 1 2 8 13 14 15 15 16 17 17 15 12 8 6 7 9 9 8 10 11 9 10 11 13 14 15 17 14 15 13 8 7 5 3 6 8 5 2 2 4 6 7 9 11
12 11 10 9 8 8 7 7 6 6 5 3 2 3 6 10 14 17 19 19 18 16 14 12 9 7 5 3 1 2 3 3 2 3 5 5 4 4 4 7 11 13 12 10 6 5 10 12 13 14 14 15 15 15 15 12 8 7 6 6 6 6 8 10 9 10 11 12 13 17 19 16 16 13 9 11 11 8 7 11 12 8 6 7 5 6 8 10
12 11 11 10 9 8 8 8 7 7 6 5 5 4 2 3 7 11 16 19 20 19 18 15 13 10 8 6 3 2 3 2 1 3 5 5 4 4 2 5 12 16 17 17 14 12 12 12 13 12 11 13 13 15 16 12 9 9 8 6 6 5 6 7 9 10 10 11 13 18 20 16 14 10 9 14 13 11 9 11 12 10 8 6 4 5 7 9
11 11 10 10 9 9 8 8 7 7 7 6 6 6 5 4 3 5 9 14 18 20 20 19 16 14 11 8 6 4 4 2 1 3 5 6 5 4 2 4 10 13 15 16 15 14 14 14 14 11 7 9 11 13 16 14 10 9 8 7 7 7 8 8 9 10 9 11 13 15 16 15 13 10 10 13 13 13 12 10 8 7 7 6 4 5 6 9
10 10 9 9 9 8 8 7 7 7 7 6 7 7 7 7 5 4 3 7 13 18 19 20 19 18 15 12 9 7 7 3 2 4 5 6 5 4 3 4 8 12 13 13 12 10 10 11 13 10 7 6 9 11 15 14 11 10 9 8 8 9 10 9 9 9 10 11 12 13 13 13 12 10 10 9 9 10 11 11 8 4 4 6 5 5 7 9
9 9 8 8 8 8 7 7 6 6 6 6 7 7 7 8 7 6 4 3 7 13 16 18 19 19 18 15 12 10 9 6 5 6 6 6 5 5 5 4 6 10 11 13 13 9 6 5 6 8 6 4 7 10 13 11 11 12 11 10 9 10 9 8 8 9 12 12 11 12 12 12 12 10 10 9 5 5 7 8 7 3 2 5 6 6 7 8
9 8 8 8 7 7 7 7 6 6 6 6 6 7 7 7 7 7 6 4 3 9 13 15 16 18 18 18 16 13 11 8 6 5 5 6 7 6 6 5 5 8 11 15 14 9 7 3 2 3 2 3 6 9 10 8 11 11 10 10 9 9 8 8 9 9 11 12 11 11 11 12 11 10 13 11 5 4 5 7 7 5 3 5 7 6 5 5
9 8 8 7 7 7 7 7 7 6 6 6 6 7 7 7 7 7 7 6 2 5 9 12 13 14 16 18 18 16 14 11 9 5 4 5 6 7 6 6 5 6 10 14 12 8 10 9 5 3 3 2 6 8 9 7 9 11 9 8 8 7 8 8 9 8 8 11 12 11 10 11 11 12 15 11 7 7 6 7 8 7 5 5 7 6 5 5
9 9 8 8 8 8 8 7 7 7 7 6 7 7 7 7 7 6 6 6 4 2 7 9 10 11 13 15 17 17 15 14 13 9 6 5 5 6 6 6 6 5 10 15 11 9 11 11 10 7 3 4 7 6 8 5 7 10 9 8 9 9 9 8 7 7 8 10 13 12 9 10 9 12 14 11 11 12 8 6 9 9 6 5 7 7 6 5
10 9 9 9 8 8 8 8 8 8 7 7 7 7 7 7 6 6 5 5 5 1 5 7 8 9 10 12 14 16 17 17 16 13 10 8 5 4 5 6 6 6 11 15 11 11 12 9 8 6 5 5 5 4 6 4 6 8 8 7 9 10 9 8 7 6 7 9 13 13 10 10 10 13 15 12 12 14 10 8 10 10 7 5 8 8 7 5
9 9 9 9 9 9 9 9 9 8 8 8 7 6 6 6 6 6 5 4 4 3 2 6 7 7 8 10 11 13 15 17 17 16 14 11 9 6 5 5 6 7 9 12 7 9 15 9 2 2 3 4 3 3 3 4 5 6 6 5 5 5 7 7 7 6 5 7 11 12 10 10 11 16 18 15 13 14 13 10 10 11 8 7 8 10 8 6
9 9 9 9 9 9 9 9 9 9 8 8 7 6 6 6 5 5 5 4 3 3 1 4 6 6 7 7 9 12 13 15 15 16 15 14 12 9 7 5 6 7 8 11 9 8 12 10 5 7 5 5 4 4 3 1 1 5 4 3 2 1 3 4 6 6 5 6 9 11 11 11 13 18 19 18 15 15 16 13 11 11 10 9 8 10 9 8
9 9 9 9 9 9 9 9 9 9 8 7 7 6 6 6 5 4 4 4 3 3 2 2 4 4 5 6 7 9 11 12 12 12 12 14 13 11 9 7 6 6 6 10 10 6 8 11 9 10 9 7 5 6 6 5 4 4 3 0 0 1 1 2 3 5 4 6 7 9 9 9 13 19 19 18 16 16 18 14 12 11 11 12 10 10 10 10
9 9 9 9 9 9 9 9 9 9 8 7 7 6 6 5 4 4 4 3 3 2 2 2 1 1 3 6 5 4 7 10 9 9 11 12 13 13 13 10 7 5 4 7 8 4 6 10 12 12 13 10 6 8 9 11 8 5 6 4 2 2 2 3 2 3 3 5 7 8 7 6 13 20 19 17 17 19 19 14 14 12 11 13 11 11 11 9
9 9 9 9 10 10 10 9 9 8 8 7 7 6 6 5 4 4 3 2 2 2 2 2 3 2 3 4 1 1 5 9 8 7 10 12 14 14 14 13 10 7 4 5 6 5 5 8 11 12 13 13 9 9 11 12 10 9 9 7 3 2 3 5 4 3 2 3 6 8 7 6 11 16 16 17 19 21 20 15 16 15 13 14 12 11 10 7
10 9 9 9 9 10 10 10 10 9 8 7 7 7 6 5 5 4 4 2 1 1 2 2 4 5 5 4 2 2 1 3 4 5 6 9 12 14 14 14 12 9 6 5 6 7 7 8 10 12 14 14 11 10 11 13 15 15 13 10 7 4 5 7 6 6 4 4 7 7 6 5 7 10 14 19 20 21 21 18 19 17 16 15 12 11 10 9
11 11 10 9 9 9 10 10 10 10 8 7 7 7 6 6 7 6 6 3 4 3 1 2 4 6 6 4 3 3 3 7 9 7 5 5 9 12 15 15 14 11 8 6 6 8 9 9 11 15 15 14 12 10 13 19 21 20 16 13 10 8 9 9 9 9 6 6 7 5 5 6 5 7 12 20 22 21 21 21 20 17 18 17 13 12 11 11
13 12 11 10 10 9 9 10 10 10 9 8 7 7 7 8 9 9 9 7 6 6 4 2 3 6 6 6 6 4 3 7 10 10 7 4 11 13 15 16 14 10 7 8 8 7 8 9 13 15 14 14 13 11 16 20 21 20 18 14 9 9 11 11 10 8 5 7 8 6 6 6 5 5 9 18 23 21 21 23 21 17 19 19 15 13 12 12
15 14 13 12 11 10 10 10 10 11 11 9 8 8 8 9 10 11 11 9 7 7 7 6 6 7 6 8 7 4 1 4 9 10 7 5 15 14 14 16 15 10 9 10 10 9 8 8 12 15 15 17 15 12 17 19 16 17 18 14 8 7 7 7 7 6 5 6 8 7 5 5 5 3 4 14 22 22 21 23 22 19 20 19 16 15 14 13
16 16 15 14 14 12 11 10 10 11 11 11 9 8 9 9 10 14 14 9 8 8 9 9 8 8 8 6 4 3 0 5 8 9 6 4 14 15 14 15 15 13 14 13 11 9 9 11 15 15 14 14 12 11 14 14 16 19 19 17 12 7 5 2 6 7 6 6 7 7 5 4 4 4 3 8 19 24 24 25 24 22 21 20 18 17 15 13
18 17 17 16 16 15 13 11 10 11 11 11 10 8 10 10 11 16 16 9 9 11 11 11 10 9 10 9 6 5 1 6 7 7 5 1 10 15 13 14 14 15 16 14 12 10 10 15 17 12 8 9 8 9 13 16 18 16 15 18 13 5 5 2 6 7 6 6 6 5 5 5 5 5 3 3 12 21 27 27 26 24 23 22 19 17 15 12
19 19 18 17 17 17 16 13 11 11 12 12 11 10 10 11 12 16 18 11 7 11 14 12 11 8 10 9 7 10 9 10 12 12 8 4 7 13 11 10 12 14 15 14 14 13 14 18 14 10 9 10 11 12 17 21 18 11 10 11 9 3 4 5 9 10 7 7 7 5 5 5 6 5 2 2 6 15 25 29 28 27 25 25 21 18 16 14
19 20 19 18 17 18 19 16 13 13 13 14 14 13 13 14 14 15 19 17 6 8 13 11 8 8 11 7 6 10 12 14 14 13 9 7 5 11 11 9 8 10 13 15 15 14 16 11 7 8 9 12 17 17 18 17 11 12 10 8 7 6 7 10 12 13 9 7 7 6 6 7 8 7 5 4 6 11 20 27 29 30 28 26 23 19 18 17
19 19 18 17 16 17 19 18 15 15 15 16 16 15 15 14 16 16 17 20 12 6 10 9 6 8 11 8 6 6 5 10 12 12 10 6 4 11 11 9 9 9 11 13 12 13 16 7 1 7 11 13 16 15 14 10 7 9 10 11 12 11 12 12 11 14 13 8 7 10 9 10 11 9 7 6 7 9 16 24 28 30 30 27 24 21 20 18
20 20 18 16 15 15 18 17 16 16 16 17 16 15 15 13 15 15 13 17 15 8 10 10 5 4 11 13 10 6 4 7 11 11 8 4 4 8 10 9 10 10 10 10 8 14 16 7 6 12 11 12 15 14 10 7 5 6 8 11 15 17 18 17 12 15 18 13 13 14 9 8 13 12 8 8 8 9 13 20 26 28 30 28 24 23 22 18
20 20 19 17 16 14 16 16 14 16 16 17 16 12 11 10 11 12 10 15 15 6 8 9 4 3 12 15 9 8 7 9 10 11 9 6 5 6 8 9 11 9 8 8 10 15 17 11 11 15 14 13 15 16 12 8 7 9 11 10 11 14 18 21 17 19 20 14 13 16 9 5 11 11 7 7 9 10 11 17 25 28 29 28 26 24 22 19
20 20 19 18 17 15 15 16 14 15 16 16 15 11 10 10 9 8 8 10 9 3 5 8 7 5 9 11 10 11 8 6 8 11 11 8 7 8 8 9 12 10 7 9 13 16 16 13 12 15 16 14 13 12 12 12 11 14 13 10 12 11 9 11 15 18 18 10 9 15 12 7 8 7 6 7 9 12 12 16 23 29 30 29 27 25 22 20
21 21 19 17 18 16 14 16 15 15 15 15 15 12 12 11 7 6 3 3 3 3 4 8 9 6 10 12 12 11 6 4 8 8 7 6 9 11 12 12 14 12 8 9 15 15 13 13 11 13 14 14 13 11 10 11 12 12 8 7 14 9 2 6 13 13 11 10 11 16 14 8 5 5 6 7 10 12 12 14 20 28 32 30 28 27 24 22
22 22 19 16 17 17 14 15 15 14 14 14 14 13 12 9 4 3 0 1 3 5 4 9 9 8 13 15 13 10 6 5 4 4 7 9 12 11 10 10 14 14 12 12 16 15 13 11 8 8 9 13 15 12 8 9 11 10 5 6 7 2 9 11 13 10 8 10 11 15 14 6 4 6 7 8 10 9 9 12 18 24 31 32 29 28 26 25
22 22 20 16 16 16 15 15 15 14 13 13 13 12 11 7 5 5 2 2 4 5 5 9 10 9 12 15 16 13 9 6 5 5 8 12 12 10 7 8 13 16 16 16 17 19 16 13 12 10 9 12 15 12 10 11 11 8 6 7 4 4 5 4 5 4 4 5 5 9 11 5 2 4 5 7 7 6 6 9 15 23 30 32 30 28 28 26
22 22 21 16 15 15 15 16 15 14 13 12 12 12 11 8 8 6 3 4 6 5 7 10 12 14 14 13 15 14 12 10 10 9 11 15 14 11 8 9 14 16 16 17 18 19 17 15 15 15 11 11 14 14 12 11 8 7 9 10 4 2 2 4 5 3 1 1 2 1 6 5 3 4 4 3 4 5 8 8 11 21 29 32 30 28 28 27
22 22 21 18 14 14 15 16 15 14 13 12 12 13 13 10 11 13 9 5 5 6 8 9 14 19 18 15 13 11 10 13 14 12 12 13 14 13 9 8 11 13 13 14 15 15 16 16 15 15 14 13 14 15 14 12 9 8 11 11 4 3 1 4 5 3 1 2 2 1 3 4 4 5 4 1 1 3 8 8 6 17 27 32 31 29 29 28
23 21 20 18 14 13 15 15 14 15 14 12 13 14 15 10 11 19 20 10 4 6 5 4 10 17 20 18 15 11 11 16 17 15 14 14 14 14 11 9 10 11 12 11 11 12 12 13 15 16 16 14 14 16 15 13 10 9 11 14 10 4 3 1 3 2 3 6 4 3 4 3 4 4 2 2 1 1 5 6 1 13 24 29 30 28 27 27
22 21 18 15 14 12 13 13 13 15 14 13 14 16 18 14 11 16 19 15 12 8 1 4 10 16 24 20 15 13 11 15 17 15 17 17 17 17 16 14 12 11 13 12 11 13 12 12 13 16 19 17 15 16 13 10 9 10 10 13 14 9 4 3 2 2 5 6 4 5 4 3 5 4 2 2 1 1 0 2 3 13 23 26 27 26 25 26
20 20 17 13 12 11 11 13 12 14 15 15 17 19 23 22 18 16 14 13 14 10 10 12 12 13 28 23 16 16 11 11 17 17 20 22 20 19 16 13 10 11 14 13 12 13 17 18 15 13 20 20 14 12 14 12 8 9 9 9 11 9 6 5 5 8 10 4 4 6 4 6 8 6 3 1 1 2 3 3 6 13 21 24 25 25 25 25
18 18 15 12 10 10 10 11 11 13 16 17 20 24 26 24 18 15 12 10 8 8 12 12 9 8 28 26 18 20 16 13 16 19 23 25 24 23 18 12 10 12 15 17 14 11 11 15 15 6 19 20 12 9 14 14 6 7 11 8 5 3 2 3 4 7 8 1 4 7 7 10 10 6 4 3 2 4 3 4 6 9 15 20 22 23 24 24
15 14 13 11 9 8 8 9 10 13 15 19 24 26 25 23 19 17 14 10 7 7 13 13 9 4 17 26 24 24 23 19 16 18 24 26 25 26 25 21 16 14 13 15 18 15 11 13 11 9 20 19 14 7 8 13 9 8 11 8 4 2 2 4 4 3 1 2 3 7 12 14 12 8 8 7 5 5 4 4 6 7 10 14 17 20 22 22
14 12 9 7 5 4 6 7 9 12 15 19 25 25 24 23 20 18 17 13 11 10 12 13 11 9 5 12 18 21 25 25 20 20 23 23 21 22 24 24 22 18 13 13 18 16 12 10 8 13 18 16 15 9 7 14 11 5 7 8 6 6 7 9 6 2 0 1 0 4 11 15 13 10 9 10 8 6 5 5 6 7 8 10 12 16 20 22
13 11 5 2 2 2 4 6 7 10 14 19 23 23 22 22 19 16 15 13 12 12 12 11 12 13 12 9 6 8 17 21 20 22 22 21 21 19 19 20 20 19 16 16 20 17 12 9 8 13 17 16 17 13 10 15 16 10 7 7 7 8 9 11 9 4 2 2 1 3 6 10 14 11 8 10 11 6 4 4 4 5 7 9 10 13 17 20
11 9 6 5 4 3 3 4 5 8 13 16 18 18 17 18 16 14 12 11 10 12 14 13 14 16 17 16 11 4 5 7 11 16 18 19 21 18 14 13 16 17 16 16 20 19 16 10 5 9 18 19 18 15 10 13 20 18 14 12 11 9 7 7 8 6 3 2 4 4 3 6 14 13 8 10 12 7 4 3 2 2 4 6 10 12 14 15
10 11 9 6 4 5 4 4 4 7 11 13 13 14 14 15 14 11 11 12 11 13 13 12 15 18 19 19 13 6 6 5 4 7 9 12 18 20 13 7 9 14 17 18 18 20 18 11 6 10 16 23 21 12 8 12 18 20 17 13 12 11 7 5 6 8 6 3 5 6 3 6 14 13 9 12 12 8 5 5 4 3 4 5 7 10 12 11
9 11 11 8 5 8 7 5 5 8 10 8 7 8 9 12 11 9 10 11 10 11 11 11 13 14 16 16 12 9 9 10 9 7 5 5 11 16 14 10 7 12 17 19 17 17 17 12 8 7 10 17 16 9 7 9 12 17 16 10 9 11 9 6 3 4 3 1 3 6 4 8 15 13 12 13 11 8 6 6 6 5 5 5 6 7 9 9
11 11 11 10 9 8 7 4 4 8 8 3 4 6 7 10 9 7 7 8 8 8 10 11 10 9 11 12 10 10 11 12 12 8 6 7 8 6 7 12 12 15 16 16 17 18 18 16 12 8 8 12 12 8 8 9 9 14 14 9 8 9 9 7 2 1 1 2 4 5 2 8 15 13 13 12 8 8 8 7 8 7 6 6 6 6 8 9
11 10 12 13 13 10 8 5 4 6 6 4 8 9 8 10 10 8 6 6 7 10 12 12 11 10 11 9 8 8 8 10 13 10 9 13 8 5 4 6 8 17 19 14 17 19 16 16 16 10 5 6 7 6 11 11 9 9 10 9 9 7 5 6 6 5 3 2 5 5 2 8 14 13 14 11 6 5 6 8 9 9 7 7 7 7 9 12
10 10 14 17 17 14 10 7 7 8 7 7 11 11 10 12 11 10 11 10 11 14 16 14 12 11 11 10 9 9 6 7 12 14 14 15 11 6 3 3 5 12 23 15 14 17 9 9 15 13 6 4 4 5 7 9 9 7 7 8 8 6 4 4 6 8 6 3 3 6 7 11 14 14 14 11 7 6 5 6 8 7 7 8 8 10 11 14
11 11 15 18 18 16 13 11 12 12 10 10 11 10 9 12 11 10 14 16 14 14 16 16 15 14 12 13 12 11 9 8 10 14 15 16 16 11 6 4 8 5 22 16 13 17 10 7 9 10 8 6 5 5 3 5 7 6 7 6 4 5 6 6 6 7 8 6 5 6 7 11 13 12 11 11 9 7 6 5 4 5 5 5 6 8 11 13
13 13 16 18 17 16 18 17 16 15 12 11 11 9 9 10 10 9 9 10 10 11 15 18 16 15 16 17 16 14 12 9 10 12 13 16 18 15 10 7 5 1 16 15 13 17 14 11 10 7 6 4 6 8 6 6 7 8 9 10 10 8 9 9 10 10 8 7 7 8 7 7 9 9 9 10 9 8 8 6 5 5 5 5 5 6 8 11
13 13 15 18 17 16 19 19 18 17 15 14 14 13 12 10 10 10 7 7 6 5 10 15 12 11 13 16 18 19 16 11 10 10 10 13 16 14 12 9 2 6 11 12 14 17 17 17 15 12 9 4 3 7 8 8 10 10 11 13 13 11 9 10 11 13 12 9 7 8 9 8 8 8 9 9 8 7 8 8 8 7 7 8 9 9 9 11
15 14 14 19 21 19 19 19 19 19 17 15 15 14 13 11 9 9 8 7 6 3 4 12 12 11 11 11 15 19 18 14 13 12 10 11 11 10 10 10 8 10 7 4 8 12 14 15 15 14 14 9 5 6 7 10 12 12 13 15 15 12 11 15 16 14 12 9 7 9 10 9 8 7 7 6 4 6 10 11 10 9 10 12 12 12 12 11
16 15 14 18 22 23 22 19 19 20 17 13 11 9 9 8 8 8 7 6 8 9 6 11 14 13 12 12 14 15 15 15 16 15 12 10 10 7 4 6 9 11 7 2 1 4 7 8 9 13 16 15 12 9 8 10 12 13 12 15 17 15 14 15 14 13 11 7 9 12 10 8 8 6 6 6 4 7 12 14 12 11 12 14 14 12 11 12
17 17 15 17 20 22 24 22 21 22 19 14 11 10 11 9 8 12 10 4 5 11 11 12 14 11 10 13 15 14 13 14 14 15 15 13 13 10 4 3 7 10 10 4 2 3 3 3 5 9 13 12 13 13 10 8 11 16 15 13 16 16 13 9 12 14 12 11 13 11 7 5 7 8 8 7 6 7 11 12 11 10 11 12 13 12 13 14
17 18 17 17 18 19 22 23 22 22 21 19 17 16 15 12 10 12 12 10 7 8 12 13 12 7 5 7 10 9 8 11 12 13 14 13 13 14 10 5 4 7 9 7 3 6 4 2 3 7 10 11 12 15 14 10 8 11 15 14 14 11 7 8 11 9 8 9 9 6 6 7 9 9 8 7 5 6 8 8 8 8 10 11 13 14 14 14
Wind_Direction
70 71 71 71 70 69 69 66 66 61 35 256 249 244 242 239 236 233 230 229 229 228 226 222 217 213 203 165 116 104 110 109 119 128 118 128 123 93 75 70 68 65 58 67 111 143 101 78 62 50 40 36 29 26 27 36 51 63 96 126 147 153 151 163 168 153 147 142 140 144 149 138 126 135 148 143 149 136 139 165 175 237 238 133 133 143 142 147
65 67 68 70 69 68 67 65 63 60 55 45 5 273 254 246 242 238 234 231 230 230 228 226 221 218 215 204 169 116 120 110 128 151 132 142 146 114 79 66 71 72 70 76 77 93 104 87 64 53 38 34 31 23 24 34 50 71 86 108 129 150 165 172 173 155 144 139 137 147 151 139 133 140 149 157 170 180 162 163 184 219 201 161 149 143 148 154
60 62 63 64 65 66 65 65 63 60 56 48 38 25 345 279 255 244 238 233 231 231 230 228 225 222 218 212 209 168 149 112 136 183 158 157 158 145 120 79 84 83 80 78 75 73 81 74 60 51 35 26 22 22 24 29 43 60 71 86 103 122 148 164 174 165 147 141 144 150 154 147 142 143 150 165 173 180 186 183 197 228 216 185 169 159 158 155
56 56 57 58 60 61 63 64 64 62 57 50 44 37 27 11 328 269 247 236 231 231 230 230 228 226 221 215 214 198 188 151 146 201 177 164 158 153 140 103 100 96 89 81 73 65 58 54 48 42 40 16 2 16 22 26 40 53 70 77 79 92 107 126 152 161 156 154 156 155 156 154 151 146 145 166 178 181 202 217 224 253 240 222 206 184 171 155
51 50 50 50 52 54 56 58 59 59 56 49 44 39 33 26 14 352 289 245 231 228 229 230 229 229 226 219 215 204 203 196 182 188 167 159 156 146 138 123 114 110 103 88 77 69 52 42 38 31 46 14 344 13 23 31 52 64 81 79 79 96 102 117 139 154 167 170 166 163 161 157 160 163 149 166 198 201 215 223 225 258 256 241 228 201 181 162
46 44 42 41 41 42 45 47 48 49 49 44 41 39 33 27 20 14 353 287 233 225 226 228 229 229 227 225 219 209 210 202 171 165 151 152 156 154 155 145 121 121 120 98 88 92 69 32 15 8 27 357 337 17 23 37 65 77 88 84 92 112 108 123 142 147 168 177 172 171 168 160 167 175 154 156 196 224 234 228 216 210 242 243 231 214 184 162
38 37 36 35 31 31 32 33 34 35 36 34 33 33 31 26 20 18 9 354 251 220 220 224 227 228 227 226 223 216 213 200 173 157 146 155 158 164 165 159 133 127 130 113 102 99 69 45 264 317 359 286 328 19 23 40 72 78 87 80 85 109 104 125 148 145 166 181 178 174 169 165 169 166 156 156 173 199 221 228 216 203 233 233 216 210 173 147
26 26 26 25 23 23 22 22 22 22 24 23 23 24 25 22 20 19 15 10 340 216 214 220 223 227 227 225 223 219 216 211 204 193 168 159 151 157 163 161 151 139 138 126 117 102 73 77 96 64 85 294 324 18 24 37 72 72 80 78 74 89 97 124 154 158 173 187 183 173 164 167 170 165 160 155 165 184 204 221 214 210 233 222 193 180 153 152
19 17 15 14 13 12 13 15 15 15 16 16 16 16 18 20 19 19 18 15 6 229 211 215 217 222 225 222 221 218 217 219 218 217 208 183 149 149 158 164 164 150 144 136 122 100 89 85 65 29 10 326 314 358 16 32 73 69 77 80 74 75 84 111 147 168 181 189 182 176 166 163 163 160 153 147 165 183 205 221 205 211 229 206 178 165 160 174
14 12 10 8 4 3 5 7 10 12 12 12 13 12 13 16 17 19 19 17 12 332 214 212 212 218 222 220 218 215 215 219 222 225 223 214 195 166 155 166 175 162 145 139 115 99 118 105 47 351 309 319 307 323 4 50 77 61 70 73 74 72 70 93 110 139 172 186 184 181 170 163 162 153 148 159 180 182 199 218 205 216 225 187 181 182 182 190
10 9 7 5 1 359 358 359 5 8 11 10 8 9 9 12 14 17 17 15 15 357 243 213 208 212 219 217 214 214 216 220 222 222 224 222 220 210 177 168 175 177 167 157 143 133 138 124 62 243 267 295 284 296 352 82 79 35 46 60 74 77 65 86 93 98 134 166 185 187 177 179 173 158 157 172 184 180 192 210 210 219 217 194 196 195 200 212
2 2 1 2 360 357 355 355 358 3 10 8 3 4 5 9 10 14 16 13 10 359 312 220 215 211 210 210 208 211 217 222 225 225 224 221 223 225 204 187 180 181 184 181 195 197 153 135 177 196 210 253 260 273 305 100 77 355 5 53 68 119 83 101 103 101 113 137 177 187 187 198 180 165 169 172 173 180 192 202 209 219 214 208 213 203 209 223
350 351 351 353 353 354 353 352 353 357 5 3 356 355 358 4 6 10 14 10 8 359 342 252 229 214 197 197 202 215 224 225 225 221 216 216 222 230 220 206 196 186 184 186 204 232 171 162 189 194 195 216 249 261 270 258 249 306 305 318 22 244 197 174 125 116 123 129 154 173 187 202 180 170 173 172 170 185 197 197 202 220 218 211 221 216 215 227
341 340 339 341 342 345 346 348 350 352 358 357 349 348 349 353 358 2 7 10 5 350 356 22 173 197 188 193 203 237 256 245 227 201 198 210 216 222 224 219 208 191 183 186 198 221 175 180 193 191 190 197 227 256 265 261 245 245 269 270 245 221 197 202 190 144 130 138 150 165 179 178 176 179 180 176 169 185 203 196 194 220 220 210 222 222 218 230
329 328 330 329 330 333 334 338 342 346 353 348 340 342 337 338 350 352 355 2 356 356 17 58 114 122 157 175 179 266 262 262 254 224 209 208 207 210 214 218 215 201 188 176 184 198 182 188 198 190 182 187 214 252 258 255 244 229 247 265 251 213 200 211 210 171 141 158 161 169 183 168 176 187 193 191 179 189 208 197 192 212 216 214 221 218 219 233
319 319 319 317 319 320 321 326 328 335 345 340 333 333 325 321 328 334 342 333 283 326 36 83 113 119 129 132 62 43 342 306 303 279 240 210 205 205 205 211 213 204 193 175 175 196 199 200 203 194 186 188 206 237 239 243 248 241 246 260 263 255 221 219 212 181 159 174 169 159 173 174 178 186 195 200 194 198 206 197 195 205 211 218 223 219 224 233
313 313 310 309 309 306 310 313 315 321 328 332 326 322 316 307 309 318 324 295 245 241 167 102 137 142 125 107 71 59 62 33 17 358 314 234 198 196 198 200 206 206 199 187 178 189 198 201 198 199 201 197 206 234 236 236 241 239 243 255 256 256 239 225 212 194 173 171 171 149 144 154 172 180 187 196 200 205 205 201 202 204 205 214 223 227 228 230
309 309 307 305 301 297 300 300 305 308 311 319 317 314 308 299 304 309 309 296 254 234 225 215 173 156 135 114 99 100 87 31 13 3 341 212 173 178 190 191 197 208 210 205 196 185 193 198 201 212 216 207 212 239 241 237 241 240 244 252 247 244 247 245 232 214 197 180 167 161 152 137 150 167 181 193 200 208 208 204 207 206 203 209 220 226 226 228
305 305 303 303 299 294 290 290 296 298 301 308 308 310 301 294 302 300 301 298 259 233 232 226 197 180 156 124 114 127 147 358 357 356 344 177 166 169 181 189 194 205 215 212 204 196 199 205 215 224 218 204 205 226 239 243 255 260 258 256 245 238 253 256 236 222 221 191 150 144 161 137 132 129 158 190 197 205 208 204 205 206 204 208 215 222 225 228
299 299 299 300 298 294 289 285 287 289 294 298 301 306 294 289 296 288 288 283 252 239 237 232 224 205 180 158 154 135 91 322 351 356 334 183 175 178 184 193 194 203 211 203 202 205 214 225 228 229 220 211 216 231 244 256 271 275 264 246 235 250 277 238 196 204 212 192 136 121 157 161 146 125 113 184 193 197 202 203 205 208 207 208 213 221 227 229
295 294 294 294 295 293 290 285 284 286 287 288 292 293 285 284 288 286 285 271 245 259 260 251 253 225 195 201 185 128 96 289 313 321 316 195 184 191 197 201 198 207 204 194 200 204 226 241 235 230 218 210 230 253 259 270 276 270 247 228 225 257 301 250 191 203 200 181 149 138 183 190 158 145 116 173 197 197 198 201 205 208 207 209 213 218 226 231
295 292 290 291 290 289 287 285 285 286 284 282 280 272 270 273 276 282 288 282 241 256 265 258 260 235 203 208 174 157 191 237 271 282 282 286 213 193 190 197 205 209 195 190 204 209 232 239 219 202 206 221 248 268 272 278 273 237 205 220 232 276 290 231 202 204 202 184 171 174 203 199 177 174 154 157 206 203 200 200 204 208 209 212 215 213 219 226
296 293 291 290 288 286 284 282 282 283 282 278 275 270 267 271 276 282 290 296 279 242 263 265 263 229 202 202 173 173 189 211 248 272 269 280 226 182 176 173 191 200 188 192 205 216 226 217 171 189 229 254 265 275 282 287 264 216 212 236 255 272 263 239 213 202 202 191 188 201 207 200 193 194 198 198 207 210 205 202 203 210 214 217 217 211 212 218
298 295 293 291 289 288 283 281 281 279 277 276 275 276 278 285 292 292 293 295 292 258 269 271 257 232 200 185 195 200 189 200 234 268 266 263 217 187 180 172 188 192 185 192 207 228 224 195 114 252 261 274 277 282 281 279 259 231 236 243 248 260 265 261 236 203 195 194 200 204 202 207 207 202 206 215 214 212 212 206 204 208 213 217 218 213 211 213
298 294 293 291 289 289 286 284 280 275 273 273 275 280 288 298 297 294 297 299 298 282 267 260 252 227 186 187 200 204 217 221 244 269 253 233 236 195 164 168 201 193 181 196 222 238 231 231 283 264 269 279 275 272 258 254 264 243 243 247 246 256 265 261 237 192 188 201 211 207 205 212 212 210 209 222 228 217 211 208 205 205 210 214 215 213 210 208
299 294 291 289 285 288 289 287 280 274 271 270 272 279 287 290 290 295 304 307 309 294 253 237 207 165 180 189 179 164 214 243 250 253 224 210 240 201 160 174 202 196 191 222 246 251 251 266 281 268 268 272 268 263 250 247 254 245 253 257 248 261 273 261 231 188 184 200 210 208 220 234 217 218 218 228 238 226 213 209 206 206 210 212 212 212 210 205
300 294 291 288 283 282 284 286 280 269 266 266 268 270 271 275 292 314 313 307 311 287 222 205 186 175 181 181 157 160 199 217 204 220 220 213 216 218 220 208 207 208 209 242 257 256 259 269 268 255 255 260 261 255 246 249 254 248 245 250 261 276 295 262 221 193 191 202 210 209 226 254 231 219 221 232 238 231 226 216 208 209 211 212 211 210 209 205
301 294 292 290 284 279 276 278 277 267 262 262 263 261 262 273 299 320 320 323 304 250 207 187 179 170 176 183 174 167 173 166 180 197 204 208 209 226 244 222 210 218 220 254 264 248 250 271 258 238 242 249 250 244 238 246 246 235 224 263 281 284 63 146 176 179 186 192 204 207 214 245 243 212 219 237 243 243 243 229 216 211 210 212 210 205 205 206
299 294 293 291 286 282 273 267 268 266 262 256 255 253 254 267 278 264 270 72 250 248 209 180 178 170 177 191 194 180 170 176 196 195 187 204 214 230 249 223 217 233 237 254 270 257 251 265 246 229 244 243 248 256 251 249 245 241 260 283 271 156 113 132 152 156 163 182 202 200 199 228 262 233 230 239 250 261 263 239 224 216 211 210 207 201 202 206
298 294 294 291 285 281 272 263 258 258 259 251 246 241 238 242 226 207 189 215 238 245 217 194 191 191 187 194 201 199 197 200 231 241 200 196 211 233 255 235 231 243 246 249 260 260 259 254 233 237 256 241 243 249 245 260 262 246 241 232 201 116 110 133 156 162 166 201 231 206 200 213 261 250 248 246 258 282 288 251 226 216 209 206 205 200 200 205
299 296 296 293 285 278 270 262 254 252 255 249 242 232 222 215 208 199 181 232 240 226 219 208 199 208 215 210 207 209 208 208 229 241 203 191 209 233 243 237 234 240 251 254 247 247 253 250 239 242 244 227 234 239 236 252 253 220 215 217 223 329 297 301 299 289 215 226 335 199 206 207 213 266 290 268 267 293 306 290 230 211 204 202 203 200 198 202
301 299 300 297 288 274 265 260 253 248 246 240 233 222 211 199 208 215 206 222 247 216 222 227 210 213 224 229 227 221 202 199 215 227 215 209 218 228 235 238 236 238 250 257 249 248 250 244 241 248 243 230 235 237 229 227 219 217 222 209 182 49 15 310 306 303 276 271 329 5 215 222 236 264 280 247 276 311 315 319 241 205 198 197 201 200 197 202
303 302 302 299 291 274 262 260 251 243 239 233 226 213 199 194 222 230 222 218 215 182 178 232 234 225 222 224 226 221 199 193 201 214 225 236 234 231 242 247 243 244 249 255 260 269 269 254 247 250 247 240 235 230 226 225 220 229 226 200 178 111 85 253 285 342 299 271 263 219 219 225 215 230 237 166 105 349 320 335 261 187 188 192 197 200 200 204
305 305 305 301 292 275 263 260 249 241 235 228 221 204 194 202 230 239 232 227 221 211 179 323 293 246 224 225 225 213 206 200 200 211 221 228 232 233 240 244 241 246 253 256 260 265 266 261 257 247 239 234 232 230 222 215 224 238 232 202 189 180 165 190 195 185 246 254 203 180 206 207 182 172 152 147 139 161 270 13 117 168 180 189 196 201 204 207
308 307 308 304 291 279 267 259 249 237 229 222 213 201 201 214 230 238 241 239 236 263 296 296 307 249 218 225 232 216 218 214 202 209 219 223 231 234 235 241 238 236 243 242 248 258 252 263 284 262 235 233 230 220 203 196 219 239 228 209 200 202 196 183 177 210 236 248 159 172 188 185 177 160 154 201 188 157 140 106 132 164 180 191 201 206 210 212
312 309 309 307 294 283 268 257 248 232 223 217 209 208 216 225 232 238 242 245 247 298 304 287 310 238 208 214 227 222 224 225 206 208 222 228 235 238 236 242 241 237 239 233 235 248 247 277 309 244 211 223 214 188 194 196 184 178 189 189 191 204 204 188 206 233 241 201 163 182 156 163 174 166 181 210 191 178 160 126 142 164 183 196 207 212 217 220
313 311 311 310 299 286 268 253 243 230 218 213 212 218 230 236 236 239 239 237 239 292 312 303 318 288 207 208 219 220 220 219 208 211 222 224 231 240 240 242 245 243 245 237 235 244 255 287 305 194 193 209 204 182 196 200 181 163 179 178 172 202 250 228 241 270 240 112 197 182 153 162 175 171 183 192 192 200 189 158 168 178 187 198 208 215 222 227
314 311 309 308 304 286 262 246 234 226 215 213 219 226 236 240 239 242 243 246 255 276 299 296 296 317 284 221 220 222 222 217 208 212 220 220 227 242 243 241 243 243 248 246 237 240 251 266 254 201 191 187 185 184 189 198 204 201 184 174 173 192 205 208 221 276 176 129 307 166 164 179 186 184 192 193 190 190 173 163 179 188 192 197 206 213 220 227
314 311 302 268 279 267 240 228 221 220 216 218 226 231 239 245 245 246 248 253 265 278 285 286 287 298 310 306 294 244 225 217 211 216 219 218 225 242 248 244 243 242 242 242 238 230 225 237 239 215 200 177 176 193 198 197 202 203 195 188 187 200 208 208 207 203 178 164 132 165 192 201 198 202 218 205 193 188 180 166 164 187 202 204 208 213 216 223
304 298 271 220 245 278 243 224 221 224 225 229 237 242 249 256 253 248 245 242 253 273 275 279 290 288 288 301 317 319 247 228 216 219 223 225 227 235 249 248 240 238 232 233 239 231 220 231 245 202 193 183 187 205 213 205 202 198 201 208 211 218 225 218 212 208 211 184 140 152 223 222 204 208 220 205 196 199 223 231 198 214 242 228 219 219 217 220
290 281 268 241 265 315 285 241 238 241 239 241 250 257 262 265 265 252 233 231 251 267 267 274 288 285 282 287 292 295 300 296 255 236 241 244 237 232 236 246 233 223 217 219 229 225 219 218 195 175 182 187 195 215 227 213 205 199 202 211 216 221 219 206 213 213 212 204 155 158 185 203 197 198 192 194 203 218 249 264 253 251 278 264 240 230 226 225
283 265 266 270 304 328 307 261 242 242 240 244 258 273 280 273 267 251 222 221 243 257 258 273 287 281 271 272 278 285 287 286 290 288 274 277 269 250 243 255 239 200 201 214 219 214 214 211 197 192 192 194 207 246 241 205 200 206 214 220 214 219 221 208 194 188 197 289 146 144 137 179 187 185 184 196 216 240 257 259 246 250 268 263 254 247 239 230
282 252 254 272 289 311 312 290 254 247 243 256 278 289 307 290 270 261 237 218 231 257 259 263 272 272 265 267 285 299 292 284 287 288 258 261 297 307 261 252 231 195 193 211 210 203 210 214 214 220 222 225 242 254 213 190 196 205 206 206 211 229 242 240 243 116 119 37 106 117 102 191 187 183 192 206 224 239 248 247 237 245 251 241 236 232 229 228
283 243 226 242 256 265 277 298 316 279 253 266 292 294 305 294 274 275 272 231 238 274 276 265 263 267 266 265 290 313 306 286 278 276 266 257 270 7 353 283 238 204 201 207 201 200 210 215 214 213 212 242 247 199 167 169 180 182 178 195 219 233 234 217 198 180 168 74 120 142 167 189 186 186 193 201 211 221 239 247 238 240 239 231 233 234 229 229
279 234 209 220 233 234 244 277 300 286 260 267 282 280 282 283 271 273 285 273 258 267 272 266 256 256 257 250 268 293 294 291 282 274 275 264 266 312 307 331 342 214 201 200 202 200 196 194 207 214 198 184 215 190 160 170 183 177 175 199 224 235 230 208 183 171 159 124 149 162 158 168 177 184 189 192 195 198 215 235 234 231 231 231 237 244 243 234
278 240 213 218 228 220 215 237 255 256 262 275 273 259 266 276 266 267 284 276 255 246 257 263 258 256 256 249 263 284 281 285 284 275 279 270 270 291 242 216 350 239 196 196 208 203 181 149 189 222 218 204 236 258 225 205 216 207 196 210 242 259 268 266 231 184 156 152 172 166 159 172 177 180 188 191 190 191 200 215 220 210 212 228 241 242 240 233
279 252 222 216 224 223 214 220 236 242 247 260 263 258 263 271 272 279 281 263 240 229 243 260 270 270 261 252 261 279 280 278 274 272 278 265 264 283 265 240 349 187 185 183 196 208 202 180 177 201 217 229 268 267 251 236 238 227 219 233 242 251 275 267 228 203 182 177 182 176 175 185 182 181 192 198 202 208 210 212 219 223 233 262 274 262 247 238
275 261 237 224 224 227 221 222 234 241 239 244 253 261 264 269 293 310 299 251 231 214 236 250 265 279 268 252 254 265 273 278 275 269 265 253 259 276 269 254 224 165 177 167 178 205 212 198 189 193 205 229 261 239 238 246 248 242 234 239 241 243 262 263 241 228 225 221 208 190 185 184 182 188 203 212 218 219 217 219 223 235 263 281 283 283 275 263
272 263 247 236 233 233 228 224 230 236 239 244 251 259 266 280 307 320 314 278 236 189 264 266 267 278 277 260 254 261 268 270 266 265 254 242 257 277 271 255 211 180 186 173 177 200 209 205 203 206 214 227 223 216 245 258 253 246 235 232 232 230 244 260 258 240 224 223 209 186 175 173 178 184 198 208 205 195 203 213 223 241 273 286 288 290 287 281
272 264 251 241 238 238 238 234 234 235 232 234 248 255 255 274 298 289 286 286 242 224 267 291 281 273 268 263 258 254 255 256 257 265 264 243 244 261 268 249 222 199 200 230 167 186 208 219 221 216 218 226 231 236 255 258 245 237 233 228 226 237 261 265 241 207 187 174 169 168 165 169 180 186 203 215 206 194 203 217 237 262 283 291 293 294 294 294
272 268 259 249 240 238 241 243 245 244 234 229 244 248 232 233 263 264 249 237 249 251 262 282 287 285 273 259 250 248 255 259 257 260 263 253 247 250 233 196 234 231 219 216 49 87 180 234 238 224 226 233 234 231 240 267 252 230 226 231 237 253 266 235 190 183 180 159 155 168 187 212 210 206 215 227 228 215 217 232 256 279 294 299 299 296 296 298
270 268 264 258 246 236 239 243 245 245 239 233 237 242 239 234 248 266 253 221 221 261 268 267 274 285 284 249 234 241 263 263 252 249 252 250 248 254 252 222 227 246 226 203 114 87 120 200 244 238 240 245 240 233 241 278 281 226 218 230 245 262 255 195 179 185 188 173 175 202 232 236 227 214 212 225 235 234 239 253 277 295 301 299 298 296 297 298
Height
3166 3166 3166 3166 3166 3166 3166 3165 3165 3165 3165 3165 3165 3165 3165 3165 3166 3166 3167 3168 3168 3169 3170 3170 3171 3172 3172 3173 3173 3174 3174 3174 3174 3175 3175 3175 3175 3175 3176 3176 3175 3175 3175 3174 3174 3175 3176 3175 3175 3175 3175 3175 3175 3174 3174 3173 3173 3172 3172 3173 3174 3175 3177 3177 3177 3177 3178 3178 3178 3178 3179 3180 3181 3181 3182 3181 3181 3180 3180 3180 3180 3181 3182 3182 3183 3183 3183 3184
3167 3167 3166 3166 3166 3166 3166 3165 3165 3165 3165 3164 3164 3164 3164 3164 3164 3164 3165 3166 3167 3167 3168 3169 3170 3171 3172 3172 3173 3173 3174 3174 3174 3174 3175 3175 3175 3175 3176 3176 3176 3175 3175 3174 3174 3175 3175 3175 3175 3174 3174 3175 3175 3175 3174 3173 3173 3173 3173 3173 3174 3175 3176 3176 3177 3177 3178 3178 3178 3178 3179 3180 3180 3181 3181 3181 3181 3180 3180 3180 3181 3181 3182 3182 3182 3183 3183 3184
3168 3167 3167 3167 3166 3166 3166 3165 3165 3165 3164 3164 3164 3163 3163 3162 3162 3163 3163 3164 3165 3166 3167 3168 3169 3170 3171 3172 3172 3173 3173 3174 3173 3174 3174 3175 3175 3175 3176 3176 3176 3175 3175 3175 3175 3175 3175 3175 3174 3173 3174 3175 3175 3176 3175 3174 3174 3173 3173 3173 3174 3174 3175 3175 3176 3177 3178 3178 3178 3179 3179 3180 3180 3180 3180 3181 3181 3180 3179 3179 3180 3180 3181 3182 3182 3182 3183 3184
3168 3168 3167 3167 3167 3166 3166 3165 3165 3165 3164 3164 3163 3163 3162 3162 3161 3161 3161 3162 3163 3164 3165 3166 3168 3169 3170 3171 3172 3172 3173 3173 3173 3173 3174 3174 3175 3175 3176 3177 3177 3176 3176 3175 3175 3175 3175 3175 3174 3173 3173 3175 3176 3176 3175 3175 3174 3174 3173 3173 3173 3173 3174 3174 3175 3176 3177 3178 3179 3179 3179 3180 3180 3180 3181 3181 3180 3181 3180 3179 3180 3180 3181 3181 3182 3182 3183 3184
3169 3168 3168 3167 3167 3167 3166 3166 3165 3165 3164 3164 3163 3163 3162 3161 3161 3160 3160 3160 3161 3162 3163 3164 3166 3167 3169 3170 3171 3172 3172 3173 3173 3173 3173 3174 3174 3175 3176 3176 3177 3176 3176 3176 3175 3175 3175 3175 3174 3174 3174 3175 3177 3177 3176 3176 3175 3174 3174 3173 3173 3173 3173 3174 3175 3175 3176 3177 3178 3179 3179 3179 3180 3180 3181 3181 3181 3180 3180 3180 3181 3181 3180 3181 3181 3182 3183 3184
3169 3169 3168 3168 3167 3167 3166 3166 3166 3165 3164 3164 3163 3163 3162 3161 3161 3160 3159 3159 3159 3160 3161 3163 3164 3165 3167 3168 3170 3171 3172 3172 3173 3172 3173 3173 3174 3175 3176 3176 3176 3176 3176 3176 3176 3176 3176 3175 3175 3175 3174 3176 3178 3178 3177 3177 3176 3175 3174 3173 3173 3173 3173 3173 3174 3175 3175 3177 3178 3179 3179 3179 3180 3180 3181 3181 3181 3180 3180 3180 3181 3181 3181 3181 3181 3182 3183 3184
3170 3169 3169 3168 3168 3167 3167 3166 3166 3165 3165 3164 3163 3163 3162 3161 3161 3160 3159 3159 3158 3159 3160 3161 3162 3164 3165 3167 3168 3170 3171 3171 3172 3172 3172 3173 3173 3174 3175 3175 3176 3176 3177 3177 3177 3177 3178 3177 3176 3176 3176 3177 3179 3179 3178 3177 3176 3176 3175 3174 3173 3173 3173 3174 3174 3175 3176 3177 3178 3178 3179 3179 3179 3180 3181 3181 3181 3180 3180 3180 3181 3182 3182 3181 3181 3181 3182 3183
3170 3170 3169 3168 3168 3167 3167 3166 3166 3165 3164 3164 3163 3162 3162 3161 3160 3160 3159 3158 3158 3158 3159 3160 3161 3162 3163 3165 3167 3168 3170 3170 3171 3171 3172 3172 3173 3173 3174 3175 3175 3176 3177 3177 3177 3177 3178 3178 3177 3177 3177 3179 3180 3179 3178 3178 3177 3176 3176 3175 3174 3174 3174 3174 3175 3176 3176 3177 3178 3178 3179 3179 3179 3180 3181 3181 3181 3180 3180 3180 3181 3182 3182 3182 3182 3182 3182 3183
3171 3170 3169 3169 3168 3167 3167 3166 3165 3165 3164 3164 3163 3162 3162 3161 3160 3160 3159 3158 3158 3158 3158 3159 3160 3161 3162 3163 3165 3167 3168 3169 3170 3170 3171 3172 3172 3172 3173 3174 3175 3176 3176 3177 3177 3177 3177 3177 3178 3178 3179 3179 3179 3179 3179 3178 3177 3177 3177 3176 3175 3175 3175 3175 3175 3176 3176 3177 3177 3178 3179 3179 3179 3180 3181 3182 3180 3180 3180 3181 3181 3182 3182 3183 3182 3182 3183 3184
3171 3170 3169 3169 3168 3167 3167 3166 3165 3165 3164 3164 3163 3162 3162 3161 3160 3160 3159 3158 3158 3158 3158 3158 3159 3159 3160 3162 3163 3165 3167 3168 3169 3170 3170 3171 3171 3172 3172 3173 3174 3175 3176 3176 3176 3176 3176 3176 3177 3179 3180 3179 3179 3178 3179 3178 3178 3177 3177 3177 3176 3175 3175 3175 3175 3175 3176 3176 3177 3178 3178 3179 3179 3180 3181 3181 3180 3180 3181 3181 3181 3182 3183 3183 3183 3183 3184 3185
3171 3170 3169 3169 3168 3167 3166 3166 3165 3165 3164 3163 3163 3162 3161 3161 3160 3160 3159 3158 3158 3157 3157 3158 3158 3159 3159 3160 3162 3164 3165 3166 3167 3168 3169 3170 3171 3171 3172 3173 3173 3174 3176 3176 3176 3175 3174 3174 3176 3179 3179 3179 3178 3178 3179 3178 3178 3177 3177 3177 3176 3176 3175 3175 3175 3175 3175 3175 3176 3177 3178 3179 3179 3179 3180 3180 3180 3180 3181 3181 3181 3182 3183 3183 3183 3184 3184 3185
3171 3170 3169 3169 3168 3167 3166 3166 3165 3164 3164 3163 3163 3162 3161 3161 3160 3159 3159 3158 3158 3157 3157 3157 3157 3158 3159 3160 3161 3162 3163 3165 3166 3167 3168 3169 3170 3170 3171 3172 3173 3174 3175 3175 3176 3175 3174 3173 3176 3178 3178 3178 3178 3178 3178 3178 3178 3177 3177 3177 3176 3176 3176 3175 3175 3175 3175 3175 3176 3177 3177 3178 3178 3179 3180 3180 3180 3180 3180 3181 3181 3182 3183 3183 3184 3184 3185 3185
3170 3170 3169 3168 3168 3167 3166 3165 3165 3164 3164 3163 3162 3162 3161 3160 3160 3159 3159 3158 3158 3157 3157 3157 3157 3158 3159 3160 3160 3161 3162 3163 3164 3166 3167 3168 3169 3169 3170 3171 3172 3173 3174 3174 3175 3176 3174 3174 3175 3177 3177 3177 3177 3177 3177 3177 3177 3177 3176 3176 3176 3176 3176 3175 3175 3175 3174 3174 3175 3176 3176 3176 3177 3178 3179 3180 3179 3180 3180 3181 3182 3182 3183 3184 3184 3184 3185 3185
3170 3169 3168 3168 3167 3166 3166 3165 3165 3164 3163 3163 3162 3161 3161 3160 3159 3159 3158 3158 3157 3157 3157 3157 3157 3158 3159 3159 3160 3161 3161 3161 3163 3164 3165 3166 3167 3168 3169 3170 3171 3172 3173 3174 3174 3174 3174 3174 3175 3176 3177 3177 3176 3176 3176 3176 3176 3176 3175 3175 3175 3175 3176 3175 3175 3175 3175 3175 3174 3175 3175 3175 3177 3178 3179 3179 3179 3179 3179 3180 3182 3183 3183 3183 3184 3184 3185 3185
3170 3169 3168 3167 3166 3166 3165 3165 3164 3164 3163 3162 3162 3161 3160 3160 3159 3158 3158 3158 3157 3157 3157 3157 3157 3157 3158 3159 3160 3161 3161 3160 3161 3162 3163 3164 3166 3167 3168 3169 3170 3171 3172 3173 3173 3174 3174 3174 3174 3175 3176 3176 3175 3175 3175 3174 3175 3175 3174 3174 3174 3175 3175 3175 3175 3175 3175 3175 3174 3174 3175 3175 3176 3177 3178 3179 3178 3178 3179 3180 3181 3182 3183 3183 3184 3184 3184 3185
3169 3168 3168 3167 3166 3165 3165 3164 3164 3163 3163 3162 3161 3161 3160 3159 3159 3158 3157 3157 3157 3156 3156 3156 3157 3157 3158 3159 3159 3160 3160 3160 3160 3160 3161 3162 3164 3165 3167 3168 3169 3170 3171 3171 3172 3173 3173 3173 3173 3174 3175 3175 3174 3174 3174 3173 3174 3174 3173 3173 3173 3174 3174 3174 3175 3174 3174 3174 3174 3174 3175 3175 3175 3176 3177 3177 3178 3178 3178 3179 3180 3181 3182 3183 3184 3184 3184 3184
3168 3167 3167 3166 3165 3165 3164 3163 3163 3162 3162 3162 3161 3160 3159 3159 3158 3157 3157 3156 3156 3156 3156 3156 3156 3157 3157 3158 3158 3159 3160 3160 3159 3159 3160 3160 3162 3163 3164 3166 3167 3168 3170 3170 3171 3171 3172 3172 3172 3172 3173 3174 3174 3174 3174 3172 3171 3172 3172 3173 3173 3173 3173 3173 3173 3174 3173 3174 3174 3174 3174 3175 3175 3175 3175 3176 3177 3177 3178 3178 3179 3180 3180 3181 3183 3183 3184 3184
3167 3166 3166 3165 3164 3164 3163 3163 3162 3162 3161 3161 3160 3160 3159 3158 3157 3157 3156 3155 3155 3155 3155 3155 3156 3156 3157 3157 3157 3158 3159 3159 3159 3159 3160 3160 3161 3162 3163 3164 3166 3167 3168 3169 3170 3170 3171 3171 3171 3170 3171 3172 3172 3173 3172 3170 3169 3171 3172 3172 3172 3172 3172 3172 3172 3173 3173 3173 3173 3174 3174 3174 3174 3174 3174 3175 3175 3176 3177 3177 3178 3178 3179 3180 3182 3182 3183 3183
3165 3165 3164 3164 3163 3163 3162 3162 3161 3161 3160 3160 3160 3159 3158 3157 3156 3155 3155 3154 3154 3154 3154 3154 3154 3155 3155 3155 3155 3156 3158 3158 3158 3158 3159 3159 3160 3161 3162 3163 3164 3166 3167 3168 3169 3169 3170 3170 3169 3168 3169 3170 3171 3171 3170 3168 3169 3171 3172 3171 3171 3171 3171 3171 3171 3172 3173 3173 3173 3173 3173 3173 3173 3173 3173 3174 3174 3175 3176 3176 3177 3178 3178 3179 3180 3182 3182 3183
3164 3163 3163 3162 3162 3161 3161 3161 3160 3160 3159 3159 3159 3158 3157 3157 3156 3154 3153 3153 3153 3152 3152 3152 3152 3153 3153 3154 3154 3155 3156 3157 3157 3158 3158 3159 3160 3160 3161 3162 3163 3164 3165 3166 3168 3169 3169 3168 3166 3166 3168 3170 3170 3170 3169 3169 3170 3171 3170 3171 3171 3171 3170 3170 3171 3172 3172 3172 3172 3172 3173 3173 3173 3173 3173 3173 3174 3174 3175 3175 3176 3177 3177 3178 3180 3180 3181 3182
3162 3162 3161 3161 3160 3160 3159 3159 3159 3159 3158 3158 3157 3157 3156 3155 3155 3152 3150 3152 3152 3151 3151 3150 3151 3151 3152 3152 3152 3153 3155 3156 3157 3158 3159 3159 3159 3160 3161 3162 3163 3163 3164 3166 3167 3167 3168 3166 3164 3166 3168 3169 3170 3169 3169 3168 3169 3169 3169 3169 3170 3170 3170 3170 3170 3171 3172 3172 3172 3172 3172 3172 3172 3172 3173 3173 3173 3173 3174 3175 3176 3176 3176 3178 3179 3179 3181 3181
3160 3160 3159 3159 3159 3158 3157 3158 3158 3158 3157 3156 3156 3155 3154 3153 3153 3151 3149 3150 3151 3150 3149 3149 3149 3150 3150 3150 3150 3151 3153 3155 3157 3158 3158 3158 3158 3159 3160 3161 3162 3162 3163 3165 3165 3165 3166 3164 3163 3165 3167 3168 3168 3167 3167 3167 3168 3169 3168 3168 3169 3169 3169 3169 3169 3170 3171 3171 3171 3171 3171 3171 3171 3171 3172 3172 3172 3173 3174 3175 3175 3176 3176 3177 3178 3178 3179 3180
3158 3158 3158 3157 3157 3156 3156 3156 3156 3156 3155 3154 3154 3153 3153 3152 3151 3151 3149 3148 3149 3149 3147 3148 3148 3148 3149 3150 3150 3150 3150 3152 3155 3157 3157 3158 3158 3158 3159 3160 3160 3162 3163 3163 3163 3164 3164 3162 3163 3164 3165 3166 3166 3166 3166 3166 3167 3167 3167 3167 3167 3167 3168 3167 3167 3169 3170 3170 3171 3171 3170 3170 3170 3170 3171 3171 3171 3172 3172 3174 3175 3176 3176 3176 3177 3178 3178 3179
3156 3156 3156 3156 3155 3155 3154 3154 3155 3154 3154 3152 3152 3152 3152 3152 3151 3150 3149 3148 3147 3147 3146 3146 3147 3147 3149 3149 3149 3149 3149 3150 3154 3156 3156 3157 3157 3158 3158 3159 3160 3161 3162 3162 3162 3163 3162 3161 3163 3164 3164 3165 3165 3165 3165 3165 3165 3165 3165 3165 3166 3166 3165 3165 3166 3168 3169 3170 3170 3170 3170 3169 3169 3169 3169 3169 3170 3170 3171 3172 3173 3174 3175 3176 3176 3177 3177 3178
3154 3153 3153 3154 3154 3153 3152 3152 3152 3152 3152 3151 3151 3151 3151 3152 3151 3149 3149 3147 3146 3146 3145 3145 3146 3146 3147 3148 3148 3149 3149 3150 3152 3154 3155 3156 3157 3157 3158 3158 3159 3160 3161 3162 3162 3162 3161 3161 3162 3162 3162 3163 3164 3164 3164 3164 3164 3164 3164 3164 3165 3165 3164 3164 3165 3167 3169 3169 3168 3169 3170 3169 3168 3168 3168 3168 3169 3169 3169 3170 3171 3173 3173 3174 3175 3176 3176 3177
3151 3151 3151 3151 3151 3151 3150 3150 3150 3150 3149 3149 3149 3150 3150 3150 3149 3149 3148 3147 3144 3143 3143 3143 3145 3145 3145 3146 3147 3148 3149 3150 3152 3154 3154 3155 3156 3157 3158 3158 3158 3158 3160 3161 3162 3161 3160 3160 3161 3160 3161 3162 3162 3162 3162 3163 3163 3163 3163 3164 3164 3164 3163 3163 3163 3165 3167 3167 3167 3168 3169 3167 3166 3166 3166 3167 3167 3168 3168 3168 3170 3171 3172 3172 3174 3175 3176 3176
3149 3148 3148 3148 3149 3149 3149 3148 3148 3148 3147 3148 3148 3149 3149 3149 3149 3149 3149 3148 3144 3141 3141 3142 3143 3144 3145 3146 3146 3147 3149 3150 3151 3152 3153 3154 3156 3157 3157 3157 3157 3157 3159 3161 3161 3159 3159 3160 3160 3159 3160 3161 3161 3160 3161 3162 3162 3162 3163 3163 3164 3163 3162 3161 3162 3163 3164 3165 3166 3167 3167 3166 3165 3165 3165 3166 3166 3166 3166 3167 3167 3168 3169 3171 3172 3174 3174 3175
3146 3145 3146 3146 3145 3146 3147 3146 3145 3146 3146 3146 3147 3148 3148 3148 3149 3149 3149 3149 3144 3140 3141 3141 3142 3143 3144 3146 3146 3147 3149 3149 3150 3151 3152 3154 3155 3155 3156 3156 3156 3157 3159 3159 3158 3157 3157 3158 3158 3158 3159 3159 3159 3159 3160 3160 3160 3161 3162 3163 3162 3161 3161 3160 3162 3163 3163 3165 3166 3166 3166 3165 3163 3163 3164 3164 3165 3164 3164 3164 3165 3166 3167 3169 3171 3172 3173 3173
3144 3142 3143 3144 3143 3143 3144 3143 3143 3143 3144 3145 3145 3146 3146 3148 3148 3148 3150 3148 3142 3139 3141 3141 3142 3142 3143 3145 3145 3146 3148 3149 3149 3150 3151 3153 3154 3155 3155 3155 3156 3156 3157 3157 3156 3154 3155 3156 3156 3156 3157 3157 3157 3158 3159 3159 3159 3160 3161 3162 3161 3161 3160 3160 3162 3163 3163 3163 3164 3164 3164 3163 3162 3162 3162 3163 3163 3162 3162 3162 3162 3163 3165 3167 3169 3171 3172 3172
3141 3140 3140 3141 3141 3140 3141 3141 3141 3141 3141 3142 3143 3144 3145 3147 3147 3148 3149 3145 3139 3139 3140 3140 3141 3142 3142 3143 3144 3146 3147 3148 3148 3150 3151 3152 3153 3154 3154 3155 3155 3155 3155 3155 3154 3153 3153 3154 3154 3154 3155 3156 3156 3157 3157 3158 3159 3159 3160 3160 3160 3160 3160 3161 3161 3162 3162 3162 3161 3162 3162 3161 3161 3161 3161 3162 3162 3161 3161 3160 3160 3160 3162 3165 3167 3169 3171 3172
3138 3137 3137 3138 3138 3138 3137 3137 3138 3139 3140 3140 3141 3142 3144 3145 3146 3147 3146 3141 3138 3138 3139 3139 3140 3141 3141 3141 3143 3144 3146 3147 3148 3148 3150 3151 3152 3153 3153 3153 3154 3154 3154 3153 3152 3152 3152 3152 3153 3153 3154 3155 3155 3156 3156 3157 3158 3159 3159 3159 3159 3159 3159 3159 3160 3160 3160 3161 3160 3160 3161 3160 3160 3160 3161 3161 3161 3160 3159 3158 3157 3157 3159 3162 3166 3168 3170 3170
3136 3135 3135 3135 3136 3135 3134 3134 3136 3137 3138 3138 3139 3140 3142 3144 3144 3142 3140 3138 3137 3137 3137 3139 3139 3139 3140 3141 3142 3142 3144 3145 3146 3147 3148 3149 3150 3151 3151 3151 3152 3152 3152 3152 3152 3152 3151 3151 3151 3152 3153 3154 3154 3154 3155 3156 3156 3157 3157 3157 3158 3159 3160 3161 3160 3160 3160 3159 3159 3160 3160 3160 3160 3160 3160 3161 3160 3159 3158 3156 3154 3155 3157 3161 3164 3166 3168 3169
3134 3133 3133 3132 3132 3132 3132 3132 3133 3134 3135 3136 3137 3138 3140 3142 3139 3135 3136 3137 3136 3136 3137 3139 3140 3139 3140 3140 3141 3141 3141 3142 3144 3146 3147 3148 3148 3149 3149 3150 3150 3150 3150 3151 3152 3151 3150 3149 3150 3150 3151 3152 3152 3152 3153 3155 3155 3155 3155 3155 3157 3159 3162 3163 3163 3162 3161 3159 3159 3160 3160 3160 3160 3160 3160 3160 3160 3159 3158 3156 3154 3154 3157 3160 3163 3165 3167 3168
3132 3131 3131 3130 3129 3129 3129 3130 3131 3132 3133 3134 3135 3136 3138 3137 3134 3132 3134 3135 3134 3135 3137 3139 3140 3140 3138 3138 3139 3140 3140 3141 3142 3144 3145 3146 3146 3146 3147 3147 3148 3149 3149 3150 3151 3151 3149 3148 3147 3148 3149 3149 3150 3151 3152 3153 3154 3154 3154 3154 3154 3156 3159 3161 3161 3162 3161 3159 3159 3160 3159 3159 3160 3159 3159 3159 3159 3159 3158 3156 3155 3155 3158 3160 3162 3164 3166 3168
3130 3129 3129 3128 3127 3127 3127 3127 3128 3129 3130 3131 3133 3134 3133 3132 3130 3131 3132 3133 3134 3136 3136 3136 3137 3137 3136 3137 3138 3138 3138 3139 3140 3142 3143 3143 3143 3144 3144 3145 3146 3147 3147 3148 3149 3148 3148 3146 3144 3145 3146 3147 3148 3149 3150 3152 3152 3152 3153 3154 3154 3154 3156 3157 3158 3159 3159 3158 3159 3159 3158 3159 3159 3159 3159 3159 3159 3158 3158 3157 3157 3157 3159 3160 3162 3163 3165 3166
3129 3128 3127 3126 3126 3125 3125 3125 3126 3127 3128 3129 3130 3129 3128 3128 3129 3130 3131 3132 3133 3134 3134 3133 3133 3133 3135 3136 3136 3137 3137 3137 3138 3140 3141 3141 3141 3141 3142 3143 3143 3144 3145 3146 3146 3146 3146 3144 3141 3141 3143 3145 3147 3148 3149 3150 3151 3151 3152 3153 3154 3154 3155 3156 3156 3156 3157 3158 3158 3157 3158 3158 3159 3159 3159 3159 3159 3158 3158 3158 3158 3158 3159 3160 3161 3162 3163 3165
3128 3127 3126 3125 3124 3124 3123 3123 3124 3125 3126 3127 3126 3125 3125 3127 3128 3129 3130 3131 3132 3133 3133 3133 3132 3132 3134 3134 3133 3134 3135 3135 3137 3137 3137 3138 3138 3138 3139 3140 3141 3141 3141 3143 3144 3144 3144 3143 3141 3140 3141 3144 3147 3148 3149 3149 3150 3150 3151 3152 3153 3154 3154 3155 3156 3156 3156 3157 3157 3157 3157 3158 3158 3158 3158 3158 3158 3158 3158 3158 3158 3159 3159 3159 3160 3161 3161 3163
3127 3126 3125 3124 3123 3122 3122 3122 3123 3123 3124 3124 3124 3124 3124 3125 3126 3128 3129 3130 3131 3132 3133 3133 3131 3131 3133 3133 3132 3133 3133 3133 3134 3133 3134 3135 3135 3134 3135 3137 3138 3138 3139 3141 3142 3143 3144 3143 3142 3141 3142 3144 3146 3147 3148 3149 3150 3150 3150 3151 3152 3153 3154 3154 3155 3155 3155 3157 3158 3158 3158 3157 3157 3157 3157 3157 3157 3157 3158 3158 3158 3159 3159 3159 3160 3160 3161 3161
3126 3125 3125 3123 3122 3122 3122 3121 3122 3122 3122 3122 3122 3123 3123 3123 3125 3127 3128 3129 3130 3130 3131 3131 3131 3130 3131 3132 3133 3132 3132 3132 3132 3131 3131 3132 3132 3132 3133 3134 3135 3136 3137 3139 3140 3142 3143 3142 3141 3142 3144 3145 3145 3146 3146 3147 3148 3150 3150 3150 3151 3151 3152 3152 3152 3152 3152 3155 3157 3159 3158 3156 3155 3156 3156 3156 3156 3157 3158 3158 3158 3159 3159 3159 3159 3159 3160 3160
3124 3124 3124 3123 3122 3121 3121 3121 3121 3121 3121 3121 3121 3122 3122 3122 3123 3125 3127 3128 3128 3129 3129 3129 3129 3129 3129 3131 3132 3131 3131 3131 3132 3132 3132 3132 3131 3130 3131 3132 3132 3134 3135 3137 3138 3140 3141 3141 3141 3141 3143 3144 3144 3144 3144 3144 3145 3147 3148 3149 3149 3150 3150 3151 3151 3150 3151 3151 3154 3158 3158 3155 3154 3155 3155 3156 3157 3157 3157 3158 3158 3158 3159 3159 3159 3159 3159 3159
3123 3122 3122 3122 3121 3121 3121 3120 3120 3120 3120 3120 3120 3121 3121 3122 3122 3123 3125 3126 3126 3127 3128 3128 3128 3127 3127 3128 3129 3129 3129 3130 3131 3132 3132 3132 3131 3129 3130 3131 3130 3131 3134 3135 3135 3137 3139 3140 3140 3141 3141 3142 3142 3142 3142 3143 3143 3145 3146 3146 3147 3148 3149 3149 3149 3149 3149 3149 3150 3153 3154 3153 3153 3154 3155 3156 3156 3157 3157 3157 3157 3158 3158 3158 3158 3159 3159 3159
3122 3121 3120 3120 3120 3120 3119 3119 3119 3119 3118 3119 3119 3120 3120 3120 3120 3121 3122 3124 3125 3125 3126 3127 3127 3126 3125 3126 3127 3128 3128 3128 3129 3130 3129 3130 3130 3129 3130 3130 3129 3130 3131 3132 3133 3135 3137 3138 3139 3140 3141 3141 3141 3141 3142 3142 3143 3144 3145 3146 3146 3147 3147 3147 3148 3148 3148 3148 3148 3149 3150 3151 3152 3153 3155 3156 3156 3157 3157 3157 3157 3157 3157 3157 3157 3158 3158 3158
3121 3120 3119 3119 3119 3119 3118 3118 3118 3117 3117 3118 3118 3118 3119 3119 3119 3119 3120 3121 3123 3123 3124 3126 3125 3124 3124 3124 3125 3126 3126 3126 3126 3127 3127 3127 3127 3127 3128 3129 3129 3129 3129 3130 3131 3133 3135 3135 3136 3138 3140 3140 3140 3140 3141 3142 3143 3143 3144 3145 3146 3146 3146 3146 3147 3147 3148 3148 3148 3148 3150 3151 3151 3153 3154 3155 3156 3156 3156 3156 3156 3157 3156 3156 3157 3157 3157 3158
3119 3119 3118 3118 3117 3117 3117 3117 3117 3117 3117 3117 3116 3116 3116 3117 3117 3118 3118 3119 3121 3121 3122 3123 3123 3122 3122 3122 3122 3123 3124 3125 3124 3124 3125 3125 3125 3125 3125 3126 3126 3127 3127 3127 3129 3131 3132 3133 3134 3136 3138 3138 3139 3139 3140 3141 3142 3142 3143 3144 3145 3145 3146 3146 3146 3146 3147 3147 3147 3148 3150 3150 3150 3152 3153 3154 3155 3155 3155 3155 3156 3156 3156 3156 3156 3156 3157 3156
3117 3116 3116 3115 3114 3115 3116 3117 3116 3115 3115 3115 3114 3114 3114 3115 3115 3116 3117 3117 3117 3119 3120 3120 3120 3120 3120 3119 3119 3120 3122 3123 3123 3122 3123 3124 3124 3124 3124 3123 3123 3124 3124 3125 3127 3130 3131 3131 3132 3133 3135 3137 3138 3138 3138 3139 3140 3141 3142 3143 3143 3144 3144 3145 3145 3145 3146 3146 3146 3146 3147 3148 3149 3150 3151 3153 3153 3154 3154 3155 3155 3156 3156 3156 3156 3156 3156 3155
3115 3114 3114 3114 3114 3113 3113 3114 3113 3113 3113 3114 3113 3113 3113 3113 3113 3115 3116 3115 3115 3116 3118 3118 3118 3119 3118 3117 3118 3119 3120 3121 3121 3121 3121 3122 3123 3123 3123 3123 3123 3123 3123 3124 3124 3127 3129 3130 3131 3133 3134 3135 3136 3136 3137 3138 3138 3139 3140 3141 3142 3143 3143 3143 3143 3144 3144 3145 3145 3145 3146 3147 3148 3149 3150 3151 3152 3153 3154 3154 3155 3155 3155 3155 3155 3155 3155 3155
3112 3112 3112 3113 3112 3111 3111 3111 3111 3111 3112 3113 3112 3111 3112 3112 3112 3113 3113 3113 3113 3114 3116 3116 3117 3117 3117 3117 3118 3118 3118 3119 3120 3120 3120 3120 3121 3121 3121 3123 3124 3124 3123 3123 3123 3124 3126 3128 3130 3132 3133 3134 3134 3135 3136 3137 3137 3138 3139 3140 3141 3142 3142 3142 3142 3142 3143 3143 3143 3143 3144 3145 3146 3147 3148 3149 3150 3152 3153 3153 3154 3154 3155 3155 3154 3154 3154 3154
3110 3109 3110 3111 3110 3109 3109 3109 3110 3110 3111 3111 3111 3111 3111 3111 3112 3112 3111 3111 3112 3113 3114 3115 3116 3116 3116 3117 3117 3117 3117 3118 3118 3117 3118 3118 3118 3118 3119 3121 3123 3124 3123 3123 3123 3123 3124 3125 3127 3130 3132 3133 3133 3134 3135 3136 3136 3137 3137 3139 3140 3140 3140 3141 3141 3140 3140 3141 3141 3141 3142 3143 3144 3145 3146 3148 3149 3150 3151 3152 3153 3153 3153 3153 3153 3152 3152 3152
3107 3107 3108 3108 3107 3107 3107 3108 3108 3108 3110 3110 3110 3111 3111 3111 3112 3113 3112 3111 3111 3112 3113 3114 3115 3115 3116 3116 3116 3116 3116 3116 3115 3114 3115 3116 3115 3116 3117 3119 3121 3122 3123 3123 3123 3122 3123 3124 3125 3128 3130 3131 3132 3134 3135 3135 3135 3135 3136 3137 3138 3139 3139 3139 3140 3139 3139 3139 3139 3140 3141 3142 3144 3145 3146 3147 3148 3149 3150 3151 3151 3152 3152 3151 3151 3151 3150 3151
3103 3103 3104 3104 3105 3105 3105 3106 3107 3107 3108 3109 3109 3110 3110 3109 3109 3109 3109 3110 3110 3111 3112 3111 3111 3112 3113 3113 3114 3113 3113 3112 3112 3112 3113 3115 3115 3115 3116 3118 3120 3121 3121 3122 3122 3122 3123 3124 3125 3126 3128 3129 3131 3133 3134 3135 3135 3134 3134 3135 3137 3138 3138 3138 3138 3137 3138 3139 3139 3140 3141 3142 3143 3144 3145 3146 3147 3148 3149 3149 3150 3150 3150 3149 3149 3149 3148 3149
3100 3100 3101 3101 3101 3102 3102 3103 3104 3105 3106 3108 3107 3106 3105 3105 3105 3104 3105 3107 3107 3108 3108 3108 3108 3109 3110 3110 3111 3111 3110 3110 3110 3111 3112 3113 3114 3115 3115 3117 3119 3120 3119 3120 3121 3122 3123 3124 3125 3126 3126 3127 3129 3131 3132 3133 3133 3133 3133 3134 3136 3137 3137 3136 3136 3135 3136 3137 3138 3139 3139 3140 3140 3142 3143 3144 3146 3146 3147 3148 3148 3148 3148 3148 3147 3147 3147 3148
3097 3097 3097 3097 3098 3099 3099 3100 3101 3102 3103 3104 3102 3101 3101 3102 3102 3102 3103 3103 3103 3104 3106 3107 3107 3109 3109 3108 3108 3108 3108 3108 3109 3109 3110 3112 3113 3113 3114 3116 3118 3119 3119 3119 3121 3122 3122 3123 3124 3125 3126 3126 3127 3129 3131 3132 3132 3132 3132 3133 3134 3135 3135 3136 3136 3136 3136 3136 3136 3136 3137 3137 3138 3139 3141 3142 3144 3145 3147 3147 3148 3147 3147 3147 3147 3146 3146 3146